EA8CHC Sevilla ES current weather conditions

sailwx.info

Wind from 094 at 4 knots gusting 6

Air temperature 17.8° C
Dewpoint 13.5° C

Last reported at 2016-Dec-07 15:52 UTC.
Time now 2016-Dec-07 16:31 UTC

Location: N 37°26' W 006°03'.
View on Google Maps.

See reports from other nearby stations

  
Tides and Currents Weather Stations Pressure Air Temp Water Temp Dewpoint Dewpoint Depression Visibility Wind Speed Wind Dir Waves Ship Positions
date/time (UTC)wind fromknots sea level pressurealtimeterstation pressurevisibilityair tempwater tempwave heightnotes
2016-Dec-07 15:52 094 4 gusting 6 17.8
2016-Dec-07 15:47 096 4 gusting 6 17.8
2016-Dec-07 15:42 092 3 gusting 6 17.8
2016-Dec-07 15:37 092 3 gusting 6 17.8
2016-Dec-07 15:32 086 3 gusting 6 17.8
2016-Dec-07 15:27 103 2 gusting 6 17.8
2016-Dec-07 15:22 101 2 gusting 6 17.8
2016-Dec-07 15:17 086 3 gusting 6 17.8
2016-Dec-07 15:12 105 4 gusting 6 17.8
2016-Dec-07 15:07 107 3 gusting 6 17.8
2016-Dec-07 15:02 109 2 gusting 6 17.8
2016-Dec-07 14:57 102 2 gusting 7 17.8
2016-Dec-07 14:52 079 3 gusting 8 17.8
2016-Dec-07 14:47 104 4 gusting 8 17.8
2016-Dec-07 14:42 082 4 gusting 10 17.8
2016-Dec-07 14:37 077 5 gusting 10 17.8
2016-Dec-07 14:32 101 6 gusting 10 17.2
2016-Dec-07 14:27 088 6 gusting 9 17.8
2016-Dec-07 14:22 100 6 gusting 9 17.8
2016-Dec-07 14:17 091 6 gusting 9 17.8
2016-Dec-07 14:12 094 4 gusting 9 17.8
2016-Dec-07 14:07 092 4 gusting 8 17.8
2016-Dec-07 14:02 061 4 gusting 6 17.8
2016-Dec-07 13:57 072 3 gusting 6 17.8
2016-Dec-07 13:52 068 3 gusting 6 17.8
2016-Dec-07 13:47 071 3 gusting 6 17.8
2016-Dec-07 13:42 047 4 gusting 6 17.2
2016-Dec-07 13:37 082 3 gusting 6 17.2
2016-Dec-07 13:32 057 3 gusting 6 17.2
2016-Dec-07 13:27 063 4 gusting 6 17.2
2016-Dec-07 13:22 054 3 gusting 6 17.2
2016-Dec-07 13:17 111 2 gusting 6 17.2
2016-Dec-07 13:12 053 3 gusting 8 16.7
2016-Dec-07 13:07 047 4 gusting 8 16.7
2016-Dec-07 13:02 058 4 gusting 6 16.7
2016-Dec-07 12:57 062 4 gusting 8 16.7
2016-Dec-07 12:52 059 4 gusting 8 16.7
2016-Dec-07 12:47 062 4 gusting 8 16.7
2016-Dec-07 12:42 065 3 gusting 8 16.7
2016-Dec-07 12:37 063 3 gusting 6 16.7
2016-Dec-07 12:32 032 2 gusting 6 16.7
2016-Dec-07 12:27 074 3 gusting 6 16.1
2016-Dec-07 12:22 058 3 gusting 6 16.1
2016-Dec-07 12:17 061 4 gusting 9 16.1
2016-Dec-07 12:12 067 4 gusting 9 16.1
2016-Dec-07 12:07 057 4 gusting 9 16.1
2016-Dec-07 12:02 063 3 gusting 8 15.6
2016-Dec-07 11:57 070 4 gusting 8 15.6
2016-Dec-07 11:52 064 4 gusting 12 15.6
2016-Dec-07 11:47 068 5 gusting 12 15.6
2016-Dec-07 11:42 050 6 gusting 12 15.6
2016-Dec-07 11:37 050 5 gusting 11 15.6
2016-Dec-07 11:32 065 3 gusting 6 15.6
2016-Dec-07 11:27 005 2 gusting 7 15.6
2016-Dec-07 11:22 076 3 gusting 7 15.0
2016-Dec-07 11:17 063 3 gusting 7 15.0
2016-Dec-07 11:12 046 3 gusting 6 15.0
2016-Dec-07 11:07 069 2 gusting 8 15.0
2016-Dec-07 11:02 086 2 gusting 8 14.4
2016-Dec-07 10:57 090 3 gusting 8 14.4
2016-Dec-07 10:52 078 3 gusting 6 14.4
2016-Dec-07 10:47 073 2 gusting 6 13.9
2016-Dec-07 10:42 080 3 gusting 7 13.9
2016-Dec-07 10:37 103 5 gusting 7 13.9
2016-Dec-07 10:32 099 5 gusting 7 13.3
2016-Dec-07 10:27 095 6 gusting 7 13.3
2016-Dec-07 10:22 092 5 gusting 7 13.3
2016-Dec-07 10:17 101 5 gusting 7 13.3
2016-Dec-07 10:12 106 4 gusting 6 13.3
2016-Dec-07 10:07 082 3 gusting 7 13.3
2016-Dec-07 10:02 114 3 gusting 7 13.3
2016-Dec-07 09:57 113 4 gusting 7 12.8
2016-Dec-07 09:52 094 4 gusting 6 12.8
2016-Dec-07 09:47 094 4 gusting 6 12.8
2016-Dec-07 09:42 086 5 gusting 6 12.8
2016-Dec-07 09:37 083 4 gusting 6 12.8
2016-Dec-07 09:32 110 2 gusting 5 12.8
2016-Dec-07 09:27 126 1 gusting 4 12.8
2016-Dec-07 09:22 126 0 gusting 2 12.8
2016-Dec-07 09:17 309 12.8
2016-Dec-07 09:12 309 12.2
2016-Dec-07 09:07 309 12.2
2016-Dec-07 09:02 309 11.7
2016-Dec-07 08:57 309 11.7
2016-Dec-07 08:52 309 11.7
2016-Dec-07 08:47 309 11.7
2016-Dec-07 08:42 309 11.7
2016-Dec-07 08:37 309 11.1
2016-Dec-07 08:32 309 11.1
2016-Dec-07 08:27 309 11.1
2016-Dec-07 08:22 309 0 gusting 2 10.6
2016-Dec-07 08:17 309 0 gusting 2 10.6
2016-Dec-07 08:12 309 10.6
2016-Dec-07 08:07 309 10.6
2016-Dec-07 08:02 309 0 gusting 2 10.6
2016-Dec-07 07:57 309 0 gusting 2 10.6
2016-Dec-07 07:52 309 10.6
2016-Dec-07 07:47 309 1 gusting 3 10.0
2016-Dec-07 07:42 309 1 gusting 3 10.0
2016-Dec-07 07:37 309 10.0
2016-Dec-07 07:32 309 10.6
2016-Dec-07 07:27 309 10.6
2016-Dec-07 07:22 309 10.6
2016-Dec-07 07:17 309 10.6
2016-Dec-07 07:12 309 10.6
2016-Dec-07 07:07 309 10.6
2016-Dec-07 07:02 309 10.6
2016-Dec-07 06:57 309 10.6
2016-Dec-07 06:52 309 10.6
2016-Dec-07 06:47 309 10.6
2016-Dec-07 06:42 309 10.6
2016-Dec-07 06:37 309 0 gusting 3 10.6
2016-Dec-07 06:32 309 0 gusting 3 10.6
2016-Dec-07 06:27 309 10.6
2016-Dec-07 06:22 309 10.6
2016-Dec-07 06:17 309 11.1
2016-Dec-07 06:12 309 11.1
2016-Dec-07 06:07 309 11.1
2016-Dec-07 06:02 309 11.1
2016-Dec-07 05:57 309 0 gusting 3 11.1
2016-Dec-07 05:52 309 1 gusting 3 11.1
2016-Dec-07 05:47 309 1 gusting 4 11.1
2016-Dec-07 05:42 309 2 gusting 4 11.1
2016-Dec-07 05:37 309 2 gusting 4 11.1
2016-Dec-07 05:32 309 2 gusting 4 11.1
2016-Dec-07 05:27 309 2 gusting 4 11.1
2016-Dec-07 05:22 268 2 gusting 4 11.1
2016-Dec-07 05:17 278 1 gusting 3 11.1
2016-Dec-07 05:12 304 1 gusting 3 11.7
2016-Dec-07 05:07 302 0 gusting 3 11.7
2016-Dec-07 05:02 302 11.7
2016-Dec-07 04:57 302 11.7
2016-Dec-07 04:52 302 11.7
2016-Dec-07 04:47 302 11.7
2016-Dec-07 04:42 302 11.7
2016-Dec-07 04:37 302 11.7
2016-Dec-07 04:32 302 0 gusting 2 11.7
2016-Dec-07 04:27 302 0 gusting 2 11.7
2016-Dec-07 04:22 302 0 gusting 2 11.7
2016-Dec-07 04:17 302 0 gusting 3 11.7
2016-Dec-07 04:12 302 0 gusting 3 11.7
2016-Dec-07 04:07 302 0 gusting 1 12.2
2016-Dec-07 04:02 302 12.2
2016-Dec-07 03:57 302 0 gusting 2 11.7
2016-Dec-07 03:52 302 0 gusting 2 12.2
2016-Dec-07 03:47 302 0 gusting 2 11.7
2016-Dec-07 03:42 302 0 gusting 3 11.7
2016-Dec-07 03:37 302 0 gusting 3 11.7
2016-Dec-07 03:32 302 1 gusting 3 11.7
2016-Dec-07 03:27 302 2 gusting 3 11.7
2016-Dec-07 03:22 302 2 gusting 4 11.7
2016-Dec-07 03:17 302 2 gusting 4 11.7
2016-Dec-07 03:12 302 2 gusting 3 11.7
2016-Dec-07 02:57 302 1 gusting 2 11.7
2016-Dec-07 02:52 302 0 gusting 2 11.7
2016-Dec-07 02:47 302 1 gusting 2 11.7
2016-Dec-07 02:42 302 1 gusting 3 11.7
2016-Dec-07 02:37 302 1 gusting 3 11.7
2016-Dec-07 02:32 303 1 gusting 3 11.7
2016-Dec-07 02:27 302 1 gusting 2 11.7
2016-Dec-07 02:22 302 0 gusting 2 12.2
2016-Dec-07 02:17 302 1 gusting 2 12.2
2016-Dec-07 02:12 302 1 gusting 2 12.2
2016-Dec-07 02:07 302 1 gusting 2 12.2
2016-Dec-07 02:02 302 12.2
2016-Dec-07 01:57 302 12.2
2016-Dec-07 01:52 302 12.2
2016-Dec-07 01:47 302 12.2
2016-Dec-07 01:42 302 12.2
2016-Dec-07 01:37 302 12.2
2016-Dec-07 01:32 303 12.2
2016-Dec-07 01:27 302 12.2
2016-Dec-07 01:22 303 12.2
2016-Dec-07 01:17 302 12.8
2016-Dec-07 01:12 302 12.8
2016-Dec-07 01:07 302 12.8
2016-Dec-07 01:02 302 12.8
2016-Dec-07 00:57 302 12.8
2016-Dec-07 00:52 302 12.8
2016-Dec-07 00:47 302 12.8
2016-Dec-07 00:42 303 12.8
2016-Dec-07 00:37 302 13.3
2016-Dec-07 00:32 303 13.3
2016-Dec-07 00:27 302 13.3
2016-Dec-07 00:22 303 13.3
2016-Dec-07 00:17 302 13.3
2016-Dec-07 00:12 303 13.3
2016-Dec-07 00:07 303 13.3
2016-Dec-07 00:02 302 13.3
2016-Dec-06 23:57 303 13.3
2016-Dec-06 23:52 302 0 gusting 3 13.9
2016-Dec-06 23:47 302 1 gusting 3 13.9
2016-Dec-06 23:42 275 1 gusting 3 14.4
2016-Dec-06 23:37 275 1 gusting 3 14.4
2016-Dec-06 23:32 275 0 gusting 2 14.4
2016-Dec-06 23:27 274 0 gusting 2 14.4
2016-Dec-06 23:22 274 1 gusting 2 14.4
2016-Dec-06 23:17 274 1 gusting 2 14.4
2016-Dec-06 23:12 274 0 gusting 3 14.4
2016-Dec-06 23:07 274 0 gusting 4 14.4
2016-Dec-06 23:02 274 1 gusting 4 14.4
2016-Dec-06 22:57 274 3 gusting 5 14.4
2016-Dec-06 22:52 274 3 gusting 5 14.4
2016-Dec-06 22:47 274 3 gusting 5 14.4
2016-Dec-06 22:42 275 3 gusting 5 14.4
2016-Dec-06 22:37 280 3 gusting 6 14.4
2016-Dec-06 22:32 274 3 gusting 6 13.9
2016-Dec-06 22:27 274 4 gusting 6 13.9
2016-Dec-06 22:22 275 5 gusting 6 13.9
2016-Dec-06 22:17 271 4 gusting 6 13.9
2016-Dec-06 22:12 287 3 gusting 4 13.9
2016-Dec-06 22:07 276 3 gusting 5 13.9
2016-Dec-06 22:02 276 3 gusting 6 13.9
2016-Dec-06 21:57 276 4 gusting 6 13.9
2016-Dec-06 21:52 273 3 gusting 5 13.9
2016-Dec-06 21:47 286 1 gusting 3 13.9
2016-Dec-06 21:42 277 13.9
2016-Dec-06 21:37 277 14.4
2016-Dec-06 21:32 277 14.4
2016-Dec-06 21:27 277 14.4
2016-Dec-06 21:22 277 14.4
2016-Dec-06 21:17 277 14.4
2016-Dec-06 21:12 277 14.4
2016-Dec-06 21:07 277 15.0
2016-Dec-06 21:02 277 15.0
2016-Dec-06 20:57 277 15.0
2016-Dec-06 20:52 277 15.0
2016-Dec-06 20:47 277 15.0
2016-Dec-06 20:42 277 15.0
2016-Dec-06 20:37 277 0 gusting 2 15.6
2016-Dec-06 20:32 277 0 gusting 2 15.6
2016-Dec-06 20:27 277 16.1
2016-Dec-06 20:22 277 16.1
2016-Dec-06 20:17 277 16.1
2016-Dec-06 20:12 277 16.7
2016-Dec-06 20:07 277 16.7
2016-Dec-06 20:02 277 16.7
2016-Dec-06 19:57 277 16.7
2016-Dec-06 19:52 277 16.7
2016-Dec-06 19:47 277 0 gusting 2 17.2
2016-Dec-06 19:42 277 1 gusting 2 17.2
2016-Dec-06 19:37 277 1 gusting 3 17.2
2016-Dec-06 19:32 277 2 gusting 3 17.2
2016-Dec-06 19:27 277 2 gusting 3 17.2
2016-Dec-06 19:22 277 2 gusting 3 17.2
2016-Dec-06 19:17 277 2 gusting 3 17.2
2016-Dec-06 19:12 277 2 gusting 3 17.2
2016-Dec-06 19:07 277 1 gusting 2 17.2
2016-Dec-06 19:02 277 1 gusting 3 17.2
2016-Dec-06 18:57 277 1 gusting 3 17.2
2016-Dec-06 18:52 277 2 gusting 3 17.2
2016-Dec-06 18:47 277 1 gusting 3 17.2
2016-Dec-06 18:42 277 1 gusting 4 17.2
2016-Dec-06 18:37 277 1 gusting 4 17.2
2016-Dec-06 18:32 277 1 gusting 4 17.2
2016-Dec-06 18:27 277 1 gusting 3 17.2
2016-Dec-06 18:22 277 1 gusting 4 17.8
2016-Dec-06 18:17 277 1 gusting 4 17.8
2016-Dec-06 18:12 277 2 gusting 4 17.8
2016-Dec-06 18:07 277 2 gusting 4 17.8
2016-Dec-06 18:02 277 2 gusting 5 17.8
2016-Dec-06 17:57 278 3 gusting 5 17.8
2016-Dec-06 17:52 273 3 gusting 5 17.8
2016-Dec-06 17:47 274 3 gusting 5 17.8
2016-Dec-06 17:42 281 3 gusting 5 17.8
2016-Dec-06 17:37 271 3 gusting 5 18.3
2016-Dec-06 17:32 269 2 gusting 4 18.3
2016-Dec-06 17:27 270 2 gusting 4 18.3
2016-Dec-06 17:22 271 2 gusting 4 18.3
2016-Dec-06 17:17 272 2 gusting 4 18.3
2016-Dec-06 17:12 094 1 gusting 4 18.9
2016-Dec-06 17:07 094 0 gusting 3 18.9
2016-Dec-06 17:02 094 19.4
2016-Dec-06 16:57 094 19.4
2016-Dec-06 16:52 094 20.0
2016-Dec-06 16:47 094 20.0
2016-Dec-06 16:42 094 20.0
2016-Dec-06 16:37 094 20.0
2016-Dec-06 16:32 094 20.0
2016-Dec-06 16:27 094 20.0
2016-Dec-06 16:22 094 20.0
2016-Dec-06 16:17 094 20.0
2016-Dec-06 16:12 093 20.0
2016-Dec-06 16:07 093 20.0
2016-Dec-06 16:02 093 20.0
2016-Dec-06 15:57 093 20.0
2016-Dec-06 15:52 093 20.0
2016-Dec-06 15:47 093 20.0
2016-Dec-06 15:42 093 20.0
2016-Dec-06 15:37 093 0 gusting 4 20.0
2016-Dec-06 15:32 093 0 gusting 4 20.0
2016-Dec-06 15:27 093 0 gusting 2 20.0
2016-Dec-06 15:22 084 20.0
2016-Dec-06 15:17 038 0 gusting 4 20.0
2016-Dec-06 15:12 038 1 gusting 4 20.0
2016-Dec-06 15:07 063 0 gusting 4 20.0
2016-Dec-06 15:02 069 0 gusting 4 20.0
2016-Dec-06 14:57 069 0 gusting 5 20.0
2016-Dec-06 14:52 043 1 gusting 5 20.0
2016-Dec-06 14:47 049 2 gusting 5 19.4
2016-Dec-06 14:42 043 2 gusting 4 19.4
2016-Dec-06 14:37 046 1 gusting 6 19.4
2016-Dec-06 14:32 046 2 gusting 6 19.4
2016-Dec-06 14:27 084 3 gusting 7 19.4
2016-Dec-06 14:22 100 3 gusting 7 19.4
2016-Dec-06 14:17 084 3 gusting 6 19.4
2016-Dec-06 14:12 092 3 gusting 6 19.4
2016-Dec-06 14:07 067 2 gusting 6 19.4
2016-Dec-06 14:02 063 2 gusting 5 19.4
2016-Dec-06 13:57 061 2 gusting 6 19.4
2016-Dec-06 13:52 057 2 gusting 6 19.4
2016-Dec-06 13:47 096 3 gusting 6 19.4
2016-Dec-06 13:42 067 3 gusting 6 19.4
2016-Dec-06 13:37 104 2 gusting 9 19.4
2016-Dec-06 13:32 042 3 gusting 9 19.4
2016-Dec-06 13:27 069 4 gusting 9 18.9
2016-Dec-06 13:22 086 4 gusting 8 18.9
2016-Dec-06 13:17 080 4 gusting 8 18.9
2016-Dec-06 13:12 085 4 gusting 8 18.9
2016-Dec-06 13:07 042 4 gusting 6 18.9
2016-Dec-06 13:02 053 4 gusting 6 18.9
2016-Dec-06 12:57 055 4 gusting 8 18.3
2016-Dec-06 12:52 069 4 gusting 8 18.3
2016-Dec-06 12:47 076 4 gusting 8 18.3
2016-Dec-06 12:42 013 3 gusting 6 18.3
2016-Dec-06 12:37 062 4 gusting 6 18.3
2016-Dec-06 12:32 096 3 gusting 9 18.3
2016-Dec-06 12:27 098 3 gusting 9 18.3
2016-Dec-06 12:22 062 3 gusting 9 18.3
2016-Dec-06 12:17 098 3 gusting 6 17.8
2016-Dec-06 12:12 059 3 gusting 6 17.8
2016-Dec-06 12:07 104 4 gusting 6 17.8
2016-Dec-06 12:02 049 3 gusting 6 17.8
2016-Dec-06 11:57 076 2 gusting 8 17.8
2016-Dec-06 11:52 059 3 gusting 8 17.8
2016-Dec-06 11:47 088 4 gusting 8 17.2
2016-Dec-06 11:42 074 4 gusting 8 17.2
2016-Dec-06 11:37 082 4 gusting 8 17.2
2016-Dec-06 11:32 065 3 gusting 8 17.2
2016-Dec-06 11:27 076 2 gusting 6 17.2
2016-Dec-06 11:22 062 2 gusting 6 16.7
2016-Dec-06 11:17 069 3 gusting 6 16.7
2016-Dec-06 11:12 071 2 gusting 5 16.1
2016-Dec-06 11:07 090 1 gusting 5 16.1
2016-Dec-06 11:02 082 1 gusting 5 16.1
2016-Dec-06 10:57 052 0 gusting 4 16.1
2016-Dec-06 10:52 092 0 gusting 4 15.6
2016-Dec-06 10:47 092 0 gusting 4 15.6
2016-Dec-06 10:42 092 0 gusting 3 15.6
2016-Dec-06 10:37 093 0 gusting 4 15.6
2016-Dec-06 10:32 092 1 gusting 5 15.0
2016-Dec-06 10:27 093 1 gusting 5 15.0
2016-Dec-06 10:22 101 1 gusting 4 15.0
2016-Dec-06 10:17 087 0 gusting 3 15.0
2016-Dec-06 10:12 078 0 gusting 4 15.0
2016-Dec-06 10:07 078 1 gusting 4 15.0
2016-Dec-06 10:02 078 0 gusting 4 15.0
2016-Dec-06 09:57 306 15.0
2016-Dec-06 09:52 306 15.0
2016-Dec-06 09:47 306 14.4
2016-Dec-06 09:42 306 14.4
2016-Dec-06 09:37 306 14.4
2016-Dec-06 09:32 306 14.4
2016-Dec-06 09:27 306 14.4
2016-Dec-06 09:22 306 14.4
2016-Dec-06 09:17 306 14.4
2016-Dec-06 09:12 306 14.4
2016-Dec-06 09:07 306 14.4
2016-Dec-06 09:02 306 13.9
2016-Dec-06 08:57 306 13.9
2016-Dec-06 08:52 306 13.9
2016-Dec-06 08:47 306 13.3
2016-Dec-06 08:42 306 13.3
2016-Dec-06 08:37 306 12.8
2016-Dec-06 08:32 306 12.8
2016-Dec-06 08:27 306 12.2
2016-Dec-06 08:22 306 0 gusting 2 12.2
2016-Dec-06 08:17 306 0 12.2
2016-Dec-06 08:12 306 12.2
2016-Dec-06 08:07 306 12.2
2016-Dec-06 08:02 306 12.2
2016-Dec-06 07:57 306 12.2
2016-Dec-06 07:52 306 12.2
2016-Dec-06 07:47 306 12.2
2016-Dec-06 07:42 306 12.2
2016-Dec-06 07:37 306 11.7
2016-Dec-06 07:32 306 0 gusting 2 11.7
2016-Dec-06 07:27 306 0 gusting 2 11.7
2016-Dec-06 07:22 306 12.2
2016-Dec-06 07:17 306 0 gusting 2 12.2
2016-Dec-06 07:12 306 1 gusting 2 12.2
2016-Dec-06 07:07 306 1 gusting 3 12.2
2016-Dec-06 07:02 306 0 gusting 3 12.2
2016-Dec-06 06:57 306 0 gusting 3 12.2
2016-Dec-06 06:52 306 1 gusting 4 12.2
2016-Dec-06 06:47 306 2 gusting 4 12.2
2016-Dec-06 06:42 306 2 gusting 5 12.2
2016-Dec-06 06:37 306 2 gusting 5 12.2
2016-Dec-06 06:32 284 2 gusting 5 12.2
2016-Dec-06 06:27 284 3 gusting 5 12.2
2016-Dec-06 06:22 288 2 gusting 5 12.2
2016-Dec-06 06:17 296 1 gusting 5 12.2
2016-Dec-06 06:12 288 2 gusting 5 12.2
2016-Dec-06 06:07 305 2 gusting 5 12.2
2016-Dec-06 06:02 294 2 gusting 3 12.2
2016-Dec-06 05:57 294 2 gusting 4 12.2
2016-Dec-06 05:52 282 2 gusting 4 12.2
2016-Dec-06 05:47 282 2 gusting 4 12.2
2016-Dec-06 05:42 283 0 gusting 2 12.2
2016-Dec-06 05:37 283 0 gusting 2 12.2
2016-Dec-06 05:32 283 1 gusting 3 12.2
2016-Dec-06 05:27 283 1 gusting 4 11.7
2016-Dec-06 05:22 283 1 gusting 4 11.7
2016-Dec-06 05:17 283 2 gusting 4 11.7
2016-Dec-06 05:12 282 2 gusting 4 11.7
2016-Dec-06 05:07 324 1 gusting 3 11.7
2016-Dec-06 05:02 324 1 gusting 3 11.7
2016-Dec-06 04:57 324 1 gusting 3 11.7
2016-Dec-06 04:52 324 2 gusting 3 11.7
2016-Dec-06 04:47 324 2 gusting 3 11.7
2016-Dec-06 04:42 324 1 gusting 2 11.7
2016-Dec-06 04:37 324 1 gusting 2 12.2
2016-Dec-06 04:32 324 0 gusting 2 12.2
2016-Dec-06 04:27 324 12.2
2016-Dec-06 04:22 324 12.2
2016-Dec-06 04:17 324 12.2
2016-Dec-06 04:12 324 12.2
2016-Dec-06 04:07 324 12.2
2016-Dec-06 04:02 324 12.2
2016-Dec-06 03:57 324 12.8
2016-Dec-06 03:52 324 0 gusting 2 12.2
2016-Dec-06 03:47 324 0 gusting 2 12.2
2016-Dec-06 03:42 324 0 gusting 2 12.2
2016-Dec-06 03:37 324 1 gusting 2 12.2
2016-Dec-06 03:32 324 1 gusting 2 12.8
2016-Dec-06 03:27 324 0 gusting 2 12.8
2016-Dec-06 03:22 324 12.8
2016-Dec-06 03:17 324 12.8
2016-Dec-06 03:12 324 13.3
2016-Dec-06 03:07 324 13.3
2016-Dec-06 03:02 324 13.3
2016-Dec-06 02:57 324 13.3
2016-Dec-06 02:52 324 13.3
2016-Dec-06 02:47 324 13.3
2016-Dec-06 02:42 324 13.3
2016-Dec-06 02:37 324 13.3
2016-Dec-06 02:32 324 13.3
2016-Dec-06 02:27 324 13.3
2016-Dec-06 02:22 324 13.3
2016-Dec-06 02:17 324 13.3
2016-Dec-06 02:12 324 13.3
2016-Dec-06 02:07 324 13.3
2016-Dec-06 02:02 324 13.3
2016-Dec-06 01:57 324 13.3
2016-Dec-06 01:52 324 13.3
2016-Dec-06 01:47 324 13.3
2016-Dec-06 01:42 324 0 gusting 3 13.3
2016-Dec-06 01:37 324 0 gusting 3 13.3
2016-Dec-06 01:32 324 13.3
2016-Dec-06 01:27 324 13.3
2016-Dec-06 01:22 324 13.9
2016-Dec-06 01:17 324 13.9
2016-Dec-06 01:12 324 13.9
2016-Dec-06 01:07 324 13.9
2016-Dec-06 01:02 324 13.9
2016-Dec-06 00:57 324 13.9
2016-Dec-06 00:52 324 0 gusting 1 13.9
2016-Dec-06 00:47 324 0 gusting 2 13.9
2016-Dec-06 00:42 324 1 gusting 3 13.9
2016-Dec-06 00:37 324 2 gusting 3 13.9
2016-Dec-06 00:32 324 2 gusting 3 13.9
2016-Dec-06 00:27 324 1 gusting 2 13.9
2016-Dec-06 00:22 324 0 gusting 2 13.9
2016-Dec-06 00:17 324 0 gusting 1 14.4
2016-Dec-06 00:12 324 14.4
2016-Dec-06 00:07 324 14.4
2016-Dec-06 00:02 324 14.4
2016-Dec-05 23:57 324 14.4
2016-Dec-05 23:52 324 14.4
2016-Dec-05 23:47 324 14.4
2016-Dec-05 23:42 324 14.4
2016-Dec-05 23:37 324 0 gusting 1 14.4
2016-Dec-05 23:32 324 14.4
2016-Dec-05 23:27 324 14.4
2016-Dec-05 23:22 324 0 gusting 4 14.4
2016-Dec-05 23:17 324 1 gusting 4 14.4
2016-Dec-05 23:12 332 2 gusting 4 14.4
2016-Dec-05 23:07 325 2 gusting 4 14.4
2016-Dec-05 23:02 315 1 gusting 4 14.4
2016-Dec-05 22:57 309 0 gusting 3 15.0
2016-Dec-05 22:52 309 1 gusting 3 15.0
2016-Dec-05 22:47 309 0 gusting 4 15.0
2016-Dec-05 22:42 306 1 gusting 4 15.0
2016-Dec-05 22:37 305 2 gusting 5 15.0
2016-Dec-05 22:32 302 1 gusting 5 15.0
2016-Dec-05 22:27 302 1 gusting 5 14.4
2016-Dec-05 22:22 275 2 gusting 4 15.0
2016-Dec-05 22:17 275 2 gusting 4 15.0
2016-Dec-05 22:12 275 2 gusting 4 15.0
2016-Dec-05 22:07 275 2 gusting 3 15.0
2016-Dec-05 22:02 275 2 gusting 3 15.6
2016-Dec-05 21:57 275 2 gusting 4 15.6
2016-Dec-05 21:52 275 2 gusting 4 15.6
2016-Dec-05 21:47 275 3 gusting 4 15.6
2016-Dec-05 21:42 275 3 gusting 4 15.6
2016-Dec-05 21:37 275 2 gusting 4 15.6
2016-Dec-05 21:32 275 1 gusting 3 15.6
2016-Dec-05 21:27 275 1 gusting 3 15.6
2016-Dec-05 21:22 275 2 gusting 3 15.6
2016-Dec-05 21:17 275 2 gusting 3 15.6
2016-Dec-05 21:12 275 1 gusting 3 15.6
2016-Dec-05 21:07 275 0 gusting 3 15.6
2016-Dec-05 21:02 275 0 gusting 4 15.6
2016-Dec-05 20:57 275 1 gusting 4 15.6
2016-Dec-05 20:52 275 2 gusting 4 15.6
2016-Dec-05 20:47 275 0 gusting 2 15.6
2016-Dec-05 20:42 275 0 gusting 4 15.6
2016-Dec-05 20:37 275 1 gusting 5 15.6
2016-Dec-05 20:32 275 2 gusting 5 15.6
2016-Dec-05 20:27 275 3 gusting 6 15.6
2016-Dec-05 20:22 275 3 gusting 6 15.6
2016-Dec-05 20:17 275 4 gusting 6 15.6
2016-Dec-05 20:12 277 4 gusting 6 15.6
2016-Dec-05 20:07 277 3 gusting 5 15.6
2016-Dec-05 20:02 279 3 gusting 5 15.6
2016-Dec-05 19:57 281 3 gusting 5 15.6
2016-Dec-05 19:52 284 2 gusting 5 15.6
2016-Dec-05 19:47 059 1 gusting 2 16.1
2016-Dec-05 19:42 059 0 gusting 2 16.1
2016-Dec-05 19:37 059 16.1
2016-Dec-05 19:32 059 16.7
2016-Dec-05 19:27 059 16.7
2016-Dec-05 19:22 059 16.1
2016-Dec-05 19:17 059 16.1
2016-Dec-05 19:12 059 0 gusting 2 16.1
2016-Dec-05 19:07 059 1 gusting 2 16.7
2016-Dec-05 19:02 059 1 gusting 2 16.7
2016-Dec-05 18:57 059 1 gusting 2 16.7
2016-Dec-05 18:52 059 1 gusting 2 16.7
2016-Dec-05 18:47 059 0 gusting 1 17.2
2016-Dec-05 18:42 059 17.2
2016-Dec-05 18:37 059 17.8
2016-Dec-05 18:32 059 17.8
2016-Dec-05 18:27 059 17.8
2016-Dec-05 18:22 059 17.8
2016-Dec-05 18:17 059 17.8
2016-Dec-05 18:12 059 0 gusting 2 17.8
2016-Dec-05 18:07 059 0 gusting 2 17.8
2016-Dec-05 18:02 059 0 gusting 2 17.8
2016-Dec-05 17:57 059 17.8
2016-Dec-05 17:52 059 17.8
2016-Dec-05 17:47 059 18.3
2016-Dec-05 17:42 059 18.3
2016-Dec-05 17:37 059 0 gusting 2 18.3
2016-Dec-05 17:32 059 0 gusting 3 18.3
2016-Dec-05 17:27 059 1 gusting 3 18.3
2016-Dec-05 17:22 059 1 gusting 3 18.3
2016-Dec-05 17:17 059 0 gusting 2 18.9
2016-Dec-05 17:12 059 18.9
2016-Dec-05 17:07 059 18.9
2016-Dec-05 17:02 059 19.4
2016-Dec-05 16:57 059 19.4
2016-Dec-05 16:52 059 19.4
2016-Dec-05 16:47 059 19.4
2016-Dec-05 16:42 059 19.4
2016-Dec-05 16:37 059 0 gusting 4 19.4
2016-Dec-05 16:32 059 1 gusting 5 19.4
2016-Dec-05 16:27 059 2 gusting 5 19.4
2016-Dec-05 16:22 076 2 gusting 6 19.4
2016-Dec-05 16:17 073 3 gusting 6 19.4
2016-Dec-05 16:12 061 3 gusting 6 20.0
2016-Dec-05 16:07 049 4 gusting 10 20.0
2016-Dec-05 16:02 062 5 gusting 10 20.0